Location: ??????
(38.3184°N, 23.6932°E)
Time: 02:17:24
(UTC+00:00)

SL-8 R/B - Pass Details

Date: 16 October 2021
Orbit: 656 x 667 km, 48.4° (Epoch: 03 December)

Event Time Altitude Azimuth Distance (km) Brightness Sun altitude
Rises 17:06:34 0° 229° (SW) 2,971 7.8 -16.6°
Reaches altitude 10° 17:08:54 10° 228° (SW) 2,063 6.9 -17.0°
Maximum altitude 17:13:39 75° 144° (SE) 686 3.6 -18.0°
Enters shadow 17:15:43 34° 65° (ENE) 1,091 4.3 -18.4°
